Time,TemperatureF,DewpointF,PressureIn,WindDirection,WindDirectionDegrees,WindSpeedMPH,WindSpeedGustMPH,Humidity,HourlyPrecipIn,Conditions,Clouds,dailyrainin,SolarRadiationWatts/m^2,SoftwareType,DateUTC
2017-05-28 00:04:00,56.3,50.9,29.98,West,280,0.0,0.0,82,0.00,,---,0.00,0.00,VWS V14.00,2017-05-28 07:04:00,
2017-05-28 00:09:00,56.2,50.8,29.97,West,280,0.0,0.0,82,0.00,,---,0.00,0.00,VWS V14.00,2017-05-28 07:09:00,
2017-05-28 00:14:00,56.2,50.8,29.97,West,280,0.0,0.0,82,0.00,,---,0.00,0.00,VWS V14.00,2017-05-28 07:14:00,
2017-05-28 00:19:00,56.0,50.3,29.97,West,280,0.0,0.0,81,0.00,,---,0.00,0.00,VWS V14.00,2017-05-28 07:19:00,
2017-05-28 00:24:00,55.9,49.8,29.97,West,280,0.0,0.0,80,0.00,,---,0.00,0.00,VWS V14.00,2017-05-28 07:24:00,
2017-05-28 00:29:00,55.9,49.8,29.97,West,280,0.0,0.0,80,0.00,,---,0.00,0.00,VWS V14.00,2017-05-28 07:29:00,
2017-05-28 00:34:00,55.7,49.3,29.97,West,280,0.0,0.0,79,0.00,,---,0.00,0.00,VWS V14.00,2017-05-28 07:34:00,
2017-05-28 00:39:00,55.6,49.2,29.97,West,280,0.0,0.0,79,0.00,,---,0.00,0.00,VWS V14.00,2017-05-28 07:39:00,
2017-05-28 00:44:00,55.6,49.2,29.97,West,280,0.0,0.0,79,0.00,,---,0.00,0.00,VWS V14.00,2017-05-28 07:44:00,
2017-05-28 00:49:00,55.4,49.0,29.97,West,280,0.0,0.0,79,0.00,,---,0.00,0.00,VWS V14.00,2017-05-28 07:49:00,
2017-05-28 00:54:00,55.3,48.9,29.97,West,280,0.0,0.0,79,0.00,,---,0.00,0.00,VWS V14.00,2017-05-28 07:54:00,
2017-05-28 00:57:00,55.3,48.9,29.97,West,280,0.0,0.0,79,0.00,,---,0.00,0.00,VWS V14.00,2017-05-28 07:57:00,
2017-05-28 01:07:00,55.0,49.0,29.97,West,280,0.0,0.0,80,0.00,,---,0.00,0.00,VWS V14.00,2017-05-28 08:07:00,
2017-05-28 01:12:00,55.0,49.0,29.97,West,280,0.0,0.0,80,0.00,,---,0.00,0.00,VWS V14.00,2017-05-28 08:12:00,
2017-05-28 01:17:00,55.0,49.3,29.97,West,280,0.0,0.0,81,0.00,,---,0.00,0.00,VWS V14.00,2017-05-28 08:17:00,
2017-05-28 01:22:00,54.8,49.1,29.96,West,280,0.0,0.0,81,0.00,,---,0.00,0.00,VWS V14.00,2017-05-28 08:22:00,
2017-05-28 01:27:00,54.8,49.1,29.96,West,280,0.0,0.0,81,0.00,,---,0.00,0.00,VWS V14.00,2017-05-28 08:27:00,
2017-05-28 01:32:00,54.7,49.0,29.96,West,280,0.0,0.0,81,0.00,,---,0.00,0.00,VWS V14.00,2017-05-28 08:32:00,
2017-05-28 01:37:00,54.5,48.8,29.96,West,280,0.0,0.0,81,0.00,,---,0.00,0.00,VWS V14.00,2017-05-28 08:37:00,
2017-05-28 01:42:00,54.4,49.0,29.96,West,280,0.0,0.0,82,0.00,,---,0.00,0.00,VWS V14.00,2017-05-28 08:42:00,
2017-05-28 01:47:00,54.2,50.1,29.96,West,280,0.0,0.0,86,0.00,,---,0.00,0.00,VWS V14.00,2017-05-28 08:47:00,